Theta_e
345 346 346 347 348 338 329 329 328 328 329 329 328 329 333 337 340 342 341 341 341 342 343 344 344 344 345 345 343 340 339 337 335 333 332 335 336 329 341 342 345 343 341
344 347 347 348 346 340 331 329 327 328 328 327 331 336 337 342 345 345 344 344 345 345 343 343 344 343 344 345 346 346 344 342 342 341 339 333 331 338 332 341 341 343 339
343 345 346 345 341 334 331 329 328 328 327 334 338 342 345 346 344 342 341 340 340 342 343 342 343 342 341 341 339 337 337 337 339 341 336 336 334 331 331 337 337 344 338
343 344 344 345 342 334 330 328 328 327 336 343 346 346 344 342 339 337 337 339 342 341 341 339 337 335 336 335 335 334 334 335 337 334 333 335 338 339 340 342 339 338 335
343 343 344 343 338 333 330 328 329 337 345 345 344 344 338 335 327 323 323 325 331 331 330 331 331 331 331 326 324 325 327 330 332 328 327 330 334 337 339 340 342 340 337
342 342 344 341 336 331 328 330 339 345 344 341 339 336 329 319 320 321 321 323 328 330 331 330 327 325 328 329 330 330 326 327 325 321 322 326 331 335 341 341 342 340 336
342 343 343 340 335 329 332 342 344 342 338 334 331 324 320 321 321 321 324 326 328 329 330 330 328 328 328 326 322 321 325 323 323 323 327 331 331 341 341 340 339 339 337
342 343 344 337 331 333 345 343 340 337 333 325 324 324 323 323 322 322 322 327 330 327 328 327 327 326 322 321 320 321 321 323 329 332 333 334 338 341 343 342 340 338 338
343 343 341 336 331 340 339 339 337 333 326 325 324 324 323 323 323 323 323 328 325 326 327 323 321 322 326 324 323 322 321 321 327 333 335 338 341 341 339 337 335 333 336
343 342 338 334 341 339 339 337 331 326 324 324 326 325 323 322 323 323 323 324 325 326 323 322 322 322 323 322 324 324 323 322 326 331 335 337 337 338 337 336 337 336 335
344 342 339 339 339 339 336 331 324 325 326 326 325 325 323 322 322 323 322 320 319 320 321 322 322 321 320 321 322 324 324 326 326 328 329 331 334 335 332 329 330 331 331
343 342 339 336 336 338 333 327 325 327 326 324 324 324 323 321 321 321 319 317 318 319 321 321 321 321 320 319 321 321 325 326 324 327 333 332 335 336 336 330 330 330 329
342 343 338 335 336 335 332 329 329 327 325 324 323 323 321 321 321 320 319 317 318 320 321 320 320 320 319 320 321 324 327 327 328 329 331 332 332 333 334 335 335 335 335
340 339 336 336 337 334 332 331 331 327 325 323 321 321 320 321 320 319 318 317 318 319 320 320 320 321 320 319 319 322 324 326 327 328 330 330 331 331 332 332 333 332 333
339 336 336 334 336 335 333 332 330 327 325 322 319 319 320 321 320 319 317 317 318 319 320 318 320 321 321 318 317 318 320 322 324 326 327 328 329 329 329 330 330 330 330
337 337 335 334 336 335 334 333 331 327 326 323 318 319 320 320 319 316 316 317 317 318 319 318 318 321 321 319 318 317 317 317 319 319 319 324 326 327 327 327 327 327 327
334 335 335 333 336 336 335 334 332 327 326 323 319 320 319 318 317 315 316 317 317 317 317 317 317 320 321 320 319 317 317 316 316 316 316 317 320 323 323 323 324 324 324
337 336 337 334 336 337 335 334 332 327 325 321 319 319 319 318 315 314 314 313 314 316 316 317 313 316 320 321 320 318 317 316 316 315 315 316 316 318 321 321 322 322 322
340 335 337 336 336 337 337 335 332 326 324 321 319 318 319 317 314 313 312 311 308 312 316 314 311 311 315 318 321 319 318 316 315 314 314 314 313 312 313 318 318 317 315
340 338 337 340 339 339 337 335 330 325 322 321 320 318 317 316 314 313 312 309 309 313 315 313 310 309 308 313 319 320 319 318 316 315 314 313 313 312 311 314 313 310 310
339 340 340 340 337 337 334 327 324 323 321 320 320 318 316 315 313 313 312 309 308 311 313 311 310 307 306 312 319 318 313 317 317 316 315 314 313 312 311 310 310 305 306
342 342 338 335 331 327 325 324 322 320 320 320 319 317 315 314 313 312 312 309 308 308 307 307 307 307 306 308 314 316 316 312 314 314 314 313 314 313 312 310 310 308 306
342 339 337 334 330 327 325 326 325 321 320 317 318 317 315 314 313 312 311 309 308 308 307 306 306 306 306 306 311 311 307 308 304 305 309 311 311 313 312 311 310 308 307
336 336 338 337 338 333 328 328 325 322 319 318 317 315 314 313 312 311 311 310 309 307 306 307 306 306 306 305 305 305 305 305 306 307 305 306 306 311 311 305 309 310 309
338 341 341 338 333 332 331 329 329 322 321 319 317 315 313 313 312 312 312 311 310 308 306 307 307 306 306 306 306 305 305 306 305 304 307 305 306 306 306 306 306 309 308
342 340 339 338 332 331 328 327 327 327 322 319 317 315 313 312 312 312 312 312 311 310 307 306 307 307 307 307 306 306 306 306 305 305 305 304 303 305 306 307 306 306 307
Wind_Speed
19 18 15 14 13 13 12 13 13 13 13 13 13 13 14 14 13 12 12 11 11 10 9 9 9 10 10 9 8 7 6 5 4 3 2 1 1 2 4 3 3 3 3
24 20 18 15 13 12 12 12 12 12 12 12 13 13 13 13 12 10 11 10 10 9 9 9 10 10 10 10 10 9 7 6 5 5 3 3 4 5 5 6 5 5 5
24 20 17 15 15 12 11 11 11 11 12 12 12 12 12 10 9 8 7 6 6 7 8 9 9 9 9 9 9 8 7 7 6 6 4 3 4 6 8 9 7 7 6
24 21 18 14 12 12 11 11 10 11 12 11 10 10 8 7 8 7 7 7 8 9 9 9 10 9 9 8 8 7 6 6 7 6 6 4 4 5 7 10 11 10 7
24 20 16 15 13 11 11 11 11 12 11 8 8 8 8 8 9 9 8 8 9 9 10 11 11 11 11 10 9 8 7 7 7 8 8 6 6 6 9 13 14 11 8
22 20 17 15 13 12 12 12 12 11 9 7 7 7 8 12 13 13 12 12 11 12 12 12 12 12 13 12 12 11 8 6 8 8 8 7 6 7 9 7 8 10 8
22 19 17 16 14 13 13 13 11 10 7 7 7 9 11 11 12 12 11 11 11 12 12 12 12 13 12 11 10 11 9 8 10 10 9 7 4 4 2 1 5 6 7
23 20 18 16 16 15 14 14 10 8 7 8 9 9 8 7 8 9 10 11 11 12 14 14 13 13 14 13 11 11 11 12 12 10 11 6 5 6 4 2 4 5 6
22 20 17 16 16 16 14 12 9 8 8 8 8 7 6 5 5 8 9 11 12 12 13 13 13 13 14 14 14 13 13 13 12 13 13 10 9 8 7 5 3 4 6
22 20 19 17 16 15 14 11 9 9 8 6 5 4 5 7 8 9 10 9 11 12 11 13 14 13 14 14 13 12 12 10 12 14 16 14 10 10 8 7 5 5 5
23 23 21 21 18 16 14 12 11 9 6 5 7 4 4 5 7 8 8 9 9 10 13 14 14 14 15 15 14 13 12 12 12 14 16 14 13 13 10 8 6 6 7
20 23 22 21 19 18 16 14 13 8 6 6 5 4 3 5 7 7 8 9 9 11 13 13 14 16 17 17 14 12 12 13 14 17 18 16 16 14 13 10 10 9 7
25 20 26 24 22 20 18 17 14 10 8 7 6 4 4 5 7 6 7 8 8 11 14 14 16 18 18 19 19 18 15 15 16 17 17 18 17 15 16 13 13 12 11
27 27 29 27 26 24 21 19 14 12 9 6 5 5 5 6 6 5 6 7 8 12 12 11 13 15 17 20 21 21 19 18 18 19 19 19 20 19 18 17 16 16 17
28 33 33 31 30 26 23 20 16 12 8 5 4 4 5 7 5 4 5 7 8 9 9 9 12 13 16 19 21 21 20 19 19 20 22 21 21 21 20 19 19 21 21
33 34 34 34 31 28 24 22 18 14 8 4 4 4 5 6 5 5 7 8 7 8 8 8 10 11 14 14 17 18 19 18 19 20 20 20 20 21 20 19 18 19 20
37 36 38 36 33 31 27 25 21 16 10 7 6 7 6 5 5 6 7 6 5 5 6 9 10 12 11 12 14 15 16 18 19 19 19 19 20 20 20 21 20 21 21
28 29 33 36 37 34 30 26 23 18 12 9 8 7 6 4 4 5 4 2 1 2 4 7 9 10 10 10 11 12 14 15 16 16 16 17 19 20 20 19 18 20 19
34 34 32 35 38 34 28 26 23 18 13 11 8 7 6 5 5 3 4 4 4 1 5 7 8 7 8 10 10 9 10 12 13 13 15 15 17 19 18 17 17 18 18
32 33 36 35 33 32 29 29 27 20 16 13 9 7 7 7 6 3 4 5 5 2 5 6 7 6 5 9 12 10 9 8 9 10 12 12 13 16 16 15 15 16 17
25 29 27 25 24 26 26 25 23 25 20 15 10 7 7 7 5 4 4 5 5 4 4 7 6 4 7 11 14 13 10 8 6 6 7 8 8 9 10 10 9 13 14
14 10 13 15 17 15 17 13 8 14 14 15 14 11 9 7 5 5 4 3 4 4 5 6 6 3 9 7 5 6 2 3 4 3 3 4 3 2 3 4 4 5 7
17 16 18 18 14 9 15 19 16 16 12 10 14 12 10 8 7 6 4 3 3 3 3 5 7 8 11 13 7 3 2 2 1 3 5 6 0 2 2 3 3 3 4
25 23 26 21 5 20 22 23 24 23 16 13 14 12 11 9 9 9 5 5 4 4 3 5 7 10 11 11 13 14 9 5 2 1 4 9 9 2 1 4 7 7 7
23 13 20 16 15 18 24 29 24 26 23 14 15 13 11 11 11 10 8 6 4 4 6 7 11 11 11 10 8 6 10 13 10 3 1 5 8 9 7 6 7 7 9
21 18 18 21 16 23 28 28 28 26 26 19 19 18 14 13 12 12 9 8 5 5 5 6 10 11 11 11 11 10 8 4 4 5 2 0 2 4 3 5 11 7 5
Wind_Direction
149 148 150 144 137 131 120 112 110 106 104 102 100 98 96 92 86 80 71 64 60 62 60 51 45 42 35 36 37 34 25 16 11 3 342 308 204 209 218 254 232 271 281
148 151 153 142 137 128 121 119 114 111 108 104 102 100 95 88 81 78 78 69 60 55 50 42 39 39 36 34 30 28 24 29 16 3 329 276 243 232 229 238 234 255 274
150 154 155 150 141 133 128 123 117 113 108 104 100 94 84 90 84 73 68 61 61 51 41 34 31 31 30 28 23 19 17 16 13 357 346 294 254 246 246 242 241 247 254
151 155 152 149 137 137 134 126 121 115 109 96 92 98 93 75 63 58 52 49 47 42 37 31 21 18 15 16 7 359 353 354 355 341 340 317 270 243 254 248 241 242 241
152 154 150 148 147 143 136 128 124 115 107 115 102 86 74 65 59 56 55 47 47 45 42 36 32 29 24 19 14 359 345 344 345 339 331 308 278 268 275 248 247 237 250
154 153 157 156 153 149 140 133 127 121 126 115 100 87 86 83 67 58 55 54 51 45 39 32 25 27 31 30 24 23 11 3 355 346 337 310 283 285 281 259 236 218 256
157 160 163 159 156 150 145 136 141 138 126 110 105 101 105 80 68 59 54 46 47 39 32 30 34 27 24 18 19 28 34 24 10 3 356 336 317 342 42 146 191 228 256
163 168 168 165 161 154 149 150 145 137 124 113 112 109 98 85 70 54 50 44 44 42 46 39 31 26 30 28 30 43 45 40 29 28 22 23 56 58 70 149 206 242 264
172 171 171 171 163 159 157 150 148 142 130 121 113 108 94 72 64 58 52 57 46 44 36 29 36 46 50 47 51 49 40 38 35 45 50 54 57 52 41 28 341 323 290
176 178 176 171 168 165 155 155 154 142 134 138 133 108 72 69 70 68 69 54 44 46 40 53 63 57 49 43 47 50 42 37 49 57 60 56 48 43 33 26 12 354 337
184 184 180 174 172 169 160 156 147 143 141 121 154 136 91 69 73 73 64 49 56 55 63 69 65 54 43 47 50 54 55 57 54 54 49 42 42 38 33 26 14 344 329
190 189 189 181 177 171 166 159 157 160 162 145 143 142 100 80 93 86 62 59 63 68 80 77 68 65 59 50 51 54 63 65 58 52 46 46 40 32 24 14 10 3 357
189 191 191 185 179 176 173 170 169 164 164 156 152 155 126 108 107 86 60 61 65 77 94 82 80 72 70 64 62 65 69 67 66 61 47 44 40 36 32 39 32 29 26
196 193 192 187 182 181 181 180 176 174 168 156 161 161 143 132 116 86 60 68 76 84 99 93 86 82 73 66 66 69 70 67 65 66 59 55 53 51 50 51 50 50 47
202 196 194 188 187 184 184 184 183 178 162 154 149 140 138 136 119 81 82 94 88 89 103 96 99 92 82 71 73 72 75 73 72 71 68 55 55 55 56 56 57 61 61
203 201 195 194 189 188 187 189 187 180 170 155 143 130 133 125 102 75 104 106 102 94 97 112 109 102 93 85 84 81 80 75 72 67 64 68 57 56 56 56 56 57 57
205 202 199 196 192 192 191 193 192 182 176 166 146 131 133 108 86 92 105 102 100 99 116 118 112 109 114 106 98 90 84 79 78 73 67 68 72 63 61 58 59 61 63
205 205 204 198 196 195 196 196 195 182 176 161 151 137 137 111 90 90 78 51 52 105 129 146 117 121 128 127 116 102 90 82 82 75 72 72 68 68 65 59 60 58 56
207 205 206 204 202 197 195 196 194 185 178 161 162 148 142 136 109 57 51 37 25 169 149 129 117 119 135 139 142 124 102 92 87 81 77 76 77 72 69 71 66 54 48
208 209 208 208 205 198 199 192 184 182 176 170 165 149 147 142 131 80 39 38 38 125 146 135 115 100 124 148 150 133 119 118 107 86 83 82 77 75 69 76 70 59 54
204 211 207 202 202 195 186 175 175 174 174 168 160 158 152 153 138 98 78 55 52 98 154 155 139 88 70 139 128 115 87 109 120 90 90 86 72 67 70 74 73 61 55
175 170 158 170 173 163 163 161 164 182 177 174 163 160 158 155 145 125 110 54 75 78 112 149 156 110 47 158 154 134 145 116 99 98 107 95 74 60 50 66 77 56 46
127 140 147 156 150 178 194 188 169 186 183 180 162 166 155 158 151 145 120 91 87 105 110 115 122 123 97 72 144 149 136 168 161 68 71 80 40 229 280 314 298 307 335
128 142 147 151 211 229 220 199 176 172 199 208 188 169 162 154 150 150 136 119 96 79 121 103 127 122 112 96 76 78 87 129 150 117 68 54 32 114 191 317 289 276 290
129 153 197 170 198 205 211 213 189 181 211 208 190 179 173 164 166 166 158 136 127 109 117 110 106 107 103 99 101 102 86 76 80 122 103 354 66 59 35 10 346 289 290
168 182 210 212 195 202 220 215 200 191 207 194 187 186 183 176 179 181 174 161 159 148 117 149 115 107 99 91 94 85 87 95 79 90 103 83 312 340 20 20 6 325 319